Location: Lac Lasalle
(46.0398°N, 74.1576°W)
Time: 17:52:34
(UTC-05:00)

ISS - Pass Details

Date: 01 November 2019
Orbit: 412 x 421 km, 51.6° (Epoch: 23 November)

Event Time Altitude Azimuth Distance (km) Brightness Sun altitude
Exits shadow 05:23:27 32° 36° (NE) 745 -2.2 -23.6°
Drops below altitude 10° 05:25:34 10° 57° (ENE) 1,509 -0.1 -23.2°
Sets 05:27:43 0° 63° (ENE) 2,374 1.2 -22.8°
